Lid_Strength_Index
14 17 20 18 17 17 18 18 18 17 16 17 17 18 15 14 15 15 14 14 14 13 11 11 10 9 9 9 9 9 10 10 11 11 11 11 11 11 11 11 11 11 11 11
16 18 16 15 15 16 16 18 19 17 16 17 19 18 16 16 16 15 14 14 14 14 13 12 11 10 9 10 10 10 10 11 11 11 11 11 12 12 11 11 11 11 11 11
16 16 14 15 16 16 18 19 19 18 17 18 20 18 17 16 16 15 14 14 14 14 14 12 11 11 10 10 10 10 10 10 11 11 11 12 12 12 12 12 11 12 11 11
15 14 14 15 16 16 18 17 17 18 21 22 20 22 17 16 15 15 15 14 14 13 13 12 11 11 11 10 10 9 10 10 10 10 11 11 11 11 11 11 12 12 11 11
16 15 15 16 15 15 16 15 16 18 23 22 20 23 17 16 15 15 14 13 13 12 12 11 11 10 10 10 10 10 10 10 10 10 10 11 11 11 11 12 12 12 11 11
15 14 14 15 14 14 15 17 18 20 24 25 26 23 18 16 16 15 14 14 13 12 12 11 10 10 10 10 10 10 10 10 10 10 10 10 11 11 11 12 12 12 11 11
17 15 14 14 15 14 17 22 26 25 26 24 30 23 18 15 15 14 14 14 14 13 12 12 11 11 10 10 10 10 10 10 10 10 10 11 11 11 11 11 12 12 11 11
24 23 19 14 15 17 18 22 24 29 27 24 29 24 16 15 15 15 14 14 14 13 13 12 12 12 12 11 11 11 11 11 11 11 10 10 10 11 11 11 11 11 11 11
23 21 15 14 14 16 19 23 19 28 34 28 25 21 16 14 16 15 15 14 15 14 14 13 12 12 12 12 12 11 11 11 11 11 11 11 11 11 11 11 11 11 11 11
18 23 19 15 15 16 19 17 23 25 28 30 27 30 20 20 19 18 16 17 15 14 13 13 12 12 12 12 12 12 12 12 11 11 11 11 12 12 12 11 12 12 11 11
19 22 22 17 22 22 21 23 23 23 23 26 29 23 20 21 21 20 20 18 19 17 14 14 13 12 13 13 12 12 11 11 11 11 11 12 12 12 12 12 12 12 11 12
15 18 25 23 18 17 18 21 20 23 27 27 25 24 18 20 24 25 18 17 15 15 15 15 14 13 13 12 12 12 11 11 11 11 12 12 12 12 12 12 12 12 12 11
15 23 29 23 21 18 21 18 19 22 21 26 25 23 21 24 22 23 22 17 16 14 14 14 14 13 13 12 12 12 12 11 11 12 12 13 12 12 12 12 12 12 12 12
12 18 24 24 24 23 22 20 19 21 27 23 22 23 20 17 19 18 17 17 18 17 16 16 14 13 13 12 13 12 11 11 12 12 12 13 13 12 12 12 12 12 12 12
15 24 20 21 24 24 21 22 21 22 22 22 20 20 24 23 22 21 20 19 18 17 17 16 16 14 13 13 12 11 10 12 12 13 13 13 12 12 12 12 12 12 12 12
15 24 21 24 18 17 19 17 19 18 18 20 17 18 23 23 25 21 20 20 19 17 16 16 16 15 13 13 12 11 11 10 14 14 13 13 13 13 13 13 13 13 13 12
17 23 26 28 23 25 25 22 19 20 23 19 23 21 25 24 23 24 20 17 17 16 17 17 16 14 13 13 12 12 11 11 17 15 14 14 14 14 15 14 14 14 13 13
17 20 26 26 29 31 21 19 19 20 19 23 23 24 23 22 22 20 18 18 18 17 17 14 13 13 12 11 11 12 12 14 17 17 16 16 16 15 16 15 15 15 14 14
14 16 23 28 34 24 20 19 19 20 21 18 20 21 19 18 18 18 16 17 17 16 14 13 13 12 12 12 11 13 15 17 20 18 18 17 17 16 16 15 15 15 14 12
17 15 17 29 30 31 22 19 17 17 23 18 18 18 18 17 20 17 15 13 13 13 12 12 12 12 12 11 11 14 13 15 16 17 17 17 18 17 16 15 15 14 12 12
20 18 20 21 24 24 18 17 17 24 21 17 17 17 17 18 16 15 13 13 12 12 12 11 11 11 11 9 9 10 10 12 11 13 14 16 17 16 16 16 15 13 13 13
24 25 27 25 23 25 17 18 20 17 16 16 17 16 16 15 14 14 13 13 12 12 11 10 10 9 8 7 8 8 9 8 10 11 13 15 16 16 15 15 14 14 15 14
24 21 23 21 21 17 16 16 15 15 16 16 16 15 15 15 14 14 14 13 12 10 9 8 9 9 7 7 7 8 7 8 8 10 13 14 16 16 15 15 15 15 14 13
20 19 20 20 19 17 16 15 14 15 15 14 14 14 13 14 13 13 13 12 10 9 9 8 8 8 9 8 8 8 7 7 8 10 12 14 16 16 16 14 14 14 13 14
19 19 23 21 18 18 17 16 15 14 14 15 14 14 13 13 13 12 12 10 9 9 9 10 10 10 10 9 8 7 7 7 8 9 11 14 15 16 16 15 15 14 13 14
17 17 19 19 15 16 15 15 15 16 16 14 14 14 13 12 12 11 10 9 9 10 10 11 11 11 11 10 9 9 7 7 7 9 11 13 14 15 15 15 16 12 12 12